Location: Waco, TX
(31.5480°N, 97.1670°W)
Time: 00:33:41
(UTC-06:00)

ISS - Pass Details

Date: 12 December 2017
Orbit: 403 x 407 km, 51.6° (Epoch: 12 December)

Event Time Altitude Azimuth Distance (km) Brightness Sun altitude
Rises 13:10:17 0° 259° (W) 2,317 0.3 34.1°
Reaches altitude 10° 13:12:50 10° 280° (W) 1,460 -0.9 34.0°
Maximum altitude 13:15:09 18° 324° (NW) 1,090 -1.8 33.9°
Drops below altitude 10° 13:17:27 10° 9° (N) 1,464 -1.4 33.8°
Sets 13:20:01 0° 30° (NNE) 2,327 -0.5 33.6°
